FW2479 Weather Reports


time (UTC)temp
C
wind
direction
speed
KPH
gust
KPH
rain 1hr
cm
rain 24hr
cm
rain mn
cm
humidity
%
barometer
mb
20260507154000 15 206 0.0 6.4 0.00 0.41 0.33 58 1007.4
20260507153720 15 309 0.0 17.7 0.00 0.41 0.33 58 1007.3
20260507152958 15 314 0.0 17.7 0.00 0.41 0.33 57 1007.3
20260507152458 15 131 0.0 8.0 0.00 0.41 0.33 60 1007.6
20260507152431 15 0 0.0 8.0 0.00 0.41 0.33 61 1007.6
20260507151718 15 338 0.0 8.0 0.00 0.41 0.33 63 1007.5
20260507150958 15 52 0.0 1.6 0.00 0.41 0.33 62 1007.6
20260507150459 14 266 0.0 1.6 0.00 0.41 0.33 65 1007.6
20260507145957 14 190 0.0 8.0 0.00 0.41 0.33 64 1007.6
20260507145459 14 323 0.0 8.0 0.00 0.41 0.33 66 1007.7
20260507145453 14 295 0.0 0.0 0.00 0.41 0.33 67 1007.8
20260507144458 13 285 0.0 3.2 0.00 0.41 0.33 67 1007.8
20260507143958 13 295 0.0 3.2 0.00 0.41 0.33 69 1007.8
20260507143458 13 324 0.0 1.6 0.00 0.41 0.33 69 1007.7
20260507142956 13 290 0.0 1.6 0.00 0.41 0.33 71 1007.8
20260507142458 13 326 0.0 1.6 0.00 0.41 0.33 70 1008.0
20260507141957 13 300 0.0 1.6 0.00 0.41 0.33 72 1007.9
20260507141719 13 329 0.0 1.6 0.00 0.41 0.33 73 1007.9
20260507140956 12 337 0.0 1.6 0.00 0.41 0.33 73 1008.0
20260507140457 12 265 0.0 1.6 0.00 0.41 0.33 74 1008.0
20260507135956 12 44 0.0 1.6 0.00 0.41 0.33 74 1008.0
20260507135458 12 298 0.0 0.0 0.00 0.41 0.33 74 1008.0
20260507135225 12 282 0.0 1.6 0.00 0.41 0.33 76 1008.0
20260507134457 12 295 0.0 1.6 0.00 0.41 0.33 76 1007.9
20260507133956 12 281 0.0 4.8 0.00 0.41 0.33 79 1007.9
20260507133456 12 252 0.0 4.8 0.00 0.41 0.33 80 1007.9
20260507132955 11 338 0.0 3.2 0.00 0.41 0.33 82 1008.1
20260507132457 11 274 0.0 3.2 0.00 0.41 0.33 82 1008.2
20260507131956 11 265 0.0 3.2 0.00 0.41 0.33 86 1008.2
20260507131457 11 319 0.0 3.2 0.00 0.41 0.33 87 1008.1
20260507130955 11 303 0.0 1.6 0.00 0.41 0.33 88 1008.0
20260507130456 10 319 0.0 1.6 0.00 0.41 0.33 88 1008.1
20260507125955 10 312 0.0 1.6 0.00 0.41 0.33 88 1008.2
20260507125455 10 330 0.0 1.6 0.00 0.41 0.33 90 1008.2
20260507124955 10 276 0.0 3.2 0.00 0.41 0.33 91 1008.3
20260507124456 10 338 0.0 3.2 0.00 0.41 0.33 92 1008.2
20260507123956 10 0 0.0 0.0 0.00 0.41 0.33 92 1008.1
20260507123715 10 319 0.0 0.0 0.00 0.41 0.33 93 1008.1
20260507122953 10 330 0.0 0.0 0.00 0.41 0.33 93 1008.1
20260507122457 10 337 0.0 0.0 0.00 0.41 0.33 94 1008.2
20260507121955 9 25 0.0 0.0 0.00 0.41 0.33 93 1008.4
20260507121719 9 306 0.0 0.0 0.00 0.41 0.33 93 1008.5
20260507120954 9 306 0.0 0.0 0.00 0.41 0.33 94 1008.5
20260507120455 9 316 0.0 0.0 0.00 0.41 0.33 94 1008.2
20260507115954 9 320 0.0 0.0 0.00 0.41 0.33 94 1008.0
20260507115454 9 320 0.0 0.0 0.00 0.41 0.33 93 1008.0
20260507115218 9 305 0.0 0.0 0.00 0.41 0.33 93 1007.9
20260507114455 9 305 0.0 0.0 0.00 0.41 0.33 94 1008.1
20260507113954 9 302 0.0 1.6 0.00 0.41 0.33 93 1008.0
20260507113454 9 302 0.0 1.6 0.00 0.41 0.33 93 1008.1
20260507112954 9 340 0.0 1.6 0.03 0.41 0.33 93 1008.1
20260507112451 9 300 0.0 1.6 0.03 0.41 0.33 93 1008.0
20260507111953 9 302 0.0 0.0 0.05 0.41 0.33 93 1008.1
20260507111717 8 298 0.0 0.0 0.05 0.41 0.33 93 1008.0
20260507110943 8 298 0.0 0.0 0.05 0.41 0.33 93 1007.7
20260507110431 8 298 0.0 0.0 0.05 0.41 0.33 93 1007.8
20260507110408 8 298 0.0 0.0 0.05 0.36 0.33 93 1007.7
20260507105431 8 298 0.0 0.0 0.05 0.36 0.33 93 1007.8
20260507104932 8 298 0.0 0.0 0.08 0.36 0.33 93 1007.8
20260507104657 8 298 0.0 0.0 0.08 0.36 0.33 93 1007.4
20260507103931 8 296 0.0 0.0 0.08 0.36 0.33 93 1007.6
20260507103430 8 296 0.0 0.0 0.08 0.36 0.33 93 1007.5
20260507102931 8 296 0.0 0.0 0.05 0.36 0.33 93 1007.5
20260507102658 8 296 0.0 0.0 0.08 0.36 0.33 93 1007.7
20260507101931 8 302 0.0 0.0 0.05 0.36 0.30 92 1007.9
20260507101432 8 302 0.0 0.0 0.05 0.36 0.30 93 1008.0
20260507100932 8 302 0.0 0.0 0.05 0.36 0.30 92 1007.9
20260507100432 8 302 0.0 0.0 0.08 0.36 0.30 92 1007.7
20260507095930 8 302 0.0 0.0 0.05 0.28 0.28 92 1007.7
20260507095432 8 302 0.0 0.0 0.05 0.28 0.25 92 1007.7
20260507094933 8 302 0.0 0.0 0.05 0.28 0.25 92 1007.7
20260507094432 8 302 0.0 0.0 0.05 0.28 0.25 92 1007.8
20260507093931 8 302 0.0 0.0 0.08 0.28 0.25 92 1007.6
20260507093432 8 302 0.0 0.0 0.08 0.28 0.25 92 1007.1
20260507092932 8 302 0.0 0.0 0.10 0.28 0.25 92 1007.1
20260507092431 8 317 0.0 0.0 0.10 0.28 0.23 92 1007.4
20260507091931 9 337 0.0 0.0 0.10 0.28 0.23 92 1007.4
20260507091431 9 338 0.0 3.2 0.13 0.28 0.23 91 1007.3
20260507090931 9 0 0.0 3.2 0.13 0.28 0.23 91 1007.2
20260507090432 9 331 0.0 0.0 0.13 0.28 0.23 91 1007.1
20260507085930 9 333 0.0 0.0 0.13 0.15 0.23 91 1007.2
20260507085431 9 305 0.0 1.6 0.15 0.15 0.23 91 1007.1
20260507084932 9 334 0.0 1.6 0.13 0.15 0.20 91 1007.1
20260507084431 9 341 0.0 1.6 0.13 0.15 0.20 91 1007.3
20260507083931 9 343 0.0 1.6 0.15 0.15 0.18 91 1007.4
20260507083432 10 327 0.0 1.6 0.15 0.15 0.18 91 1007.3
20260507082932 10 327 0.0 1.6 0.15 0.15 0.15 90 1007.2
20260507082431 10 327 0.0 0.0 0.13 0.15 0.15 90 1007.3
20260507082153 10 327 0.0 0.0 0.13 0.15 0.15 90 1007.4
20260507081430 10 327 0.0 0.0 0.10 0.15 0.13 90 1007.1
20260507081153 10 327 0.0 0.0 0.10 0.15 0.13 89 1007.1
20260507080432 10 319 0.0 0.0 0.08 0.15 0.10 89 1007.0
20260507075931 10 319 0.0 1.6 0.08 0.08 0.10 88 1007.4
20260507075431 10 317 0.0 1.6 0.05 0.08 0.08 88 1007.7
20260507074931 10 265 0.0 0.0 0.05 0.08 0.08 88 1007.5
20260507074431 11 344 0.0 0.0 0.05 0.08 0.05 87 1007.5
20260507073933 11 309 0.0 1.6 0.00 0.08 0.03 85 1007.4
20260507073431 11 309 0.0 6.4 0.00 0.08 0.03 85 1007.2
20260507073159 11 300 0.0 6.4 0.00 0.08 0.03 85 1007.4
20260507072653 11 336 0.0 0.0 0.00 0.08 0.03 85 1007.0
20260507071932 12 320 0.0 0.0 0.00 0.08 0.03 84 1006.6
20260507071653 12 303 0.0 0.0 0.00 0.08 0.03 84 1006.3
20260507070931 12 303 0.0 0.0 0.00 0.08 0.03 84 1006.3
20260507070431 12 303 0.0 4.8 0.00 0.08 0.03 84 1006.1
20260507070410 12 303 0.0 4.8 0.00 0.08 0.03 83 1006.0
20260507065659 12 306 0.0 3.2 0.00 0.08 0.03 84 1006.3
20260507064931 12 258 0.0 1.6 0.00 0.08 0.03 85 1006.3
20260507064657 12 306 0.0 1.6 0.00 0.08 0.03 85 1006.3
20260507064415 12 114 0.0 1.6 0.00 0.08 0.03 85 1006.4
20260507063657 12 313 0.0 0.0 0.00 0.08 0.03 88 1006.4
20260507062931 13 319 0.0 0.0 0.00 0.08 0.03 89 1006.5
20260507062431 13 316 0.0 0.0 0.00 0.08 0.03 89 1006.5
20260507061931 13 314 0.0 0.0 0.00 0.08 0.03 89 1006.4
20260507061432 -17 0.0 0.0 0.00 0.08 0.03 1006.3
20260507060903 -17 0.0 0.0 0.00 0.08 0.03 1006.3
20260507060628 13 307 0.0 0.0 0.00 0.08 0.03 89 1006.4
20260507055905 13 307 0.0 0.0 0.00 0.08 0.03 89 1006.5
20260507055403 13 307 0.0 0.0 0.03 0.08 0.03 89 1006.6
20260507054902 13 327 0.0 0.0 0.03 0.08 0.03 89 1006.6
20260507054623 13 329 0.0 1.6 0.03 0.08 0.03 89 1006.8
20260507053902 13 329 0.0 1.6 0.03 0.08 0.03 89 1006.7
20260507053402 13 326 0.0 1.6 0.03 0.08 0.03 89 1006.6
20260507052903 13 0 0.0 3.2 0.03 0.08 0.03 89 1006.6
20260507052402 13 329 0.0 3.2 0.03 0.08 0.03 89 1007.0
20260507051902 13 302 0.0 1.6 0.03 0.08 0.03 89 1006.8
20260507051402 13 279 0.0 3.2 0.03 0.08 0.03 89 1006.8
20260507050903 13 300 0.0 6.4 0.03 0.08 0.03 89 1006.7
20260507050404 13 323 0.0 6.4 0.03 0.08 0.03 90 1006.5
20260507045903 14 319 0.0 4.8 0.03 0.05 0.03 91 1006.7
20260507045402 14 303 0.0 1.6 0.00 0.05 0.00 91 1006.7
20260507044902 14 317 0.0 0.0 0.00 0.05 0.00 92 1006.8
20260507044404 14 344 0.0 0.0 0.00 0.05 0.00 92 1006.6
20260507043902 14 274 0.0 0.0 0.00 0.05 0.00 92 1006.6
20260507043403 15 321 0.0 0.0 0.00 0.05 0.00 92 1006.6
20260507042902 15 283 0.0 0.0 0.00 0.05 0.00 92 1006.6
20260507042403 15 298 0.0 0.0 0.00 0.05 0.00 92 1006.6
20260507041903 15 298 0.0 0.0 0.00 0.05 0.00 92 1006.7
20260507041403 15 298 0.0 0.0 0.00 0.05 0.00 92 1006.5
20260507040902 15 299 0.0 0.0 0.00 0.05 0.00 92 1006.6
20260507040404 15 299 0.0 0.0 0.00 0.05 0.00 92 1006.7
20260507035903 15 299 0.0 0.0 0.00 0.05 0.05 92 1006.6
20260507035404 15 299 0.0 0.0 0.00 0.05 0.05 92 1006.7
20260507034903 15 299 0.0 11.3 0.00 0.05 0.05 92 1006.7
20260507034404 15 309 1.6 11.3 0.00 0.05 0.05 92 1006.8
20260507033903 15 258 0.0 3.2 0.00 0.05 0.05 91 1006.7
20260507033403 15 305 0.0 0.0 0.00 0.05 0.05 92 1006.7
20260507032901 15 302 0.0 0.0 0.00 0.05 0.05 92 1006.8
20260507032403 15 210 0.0 9.7 0.00 0.05 0.05 92 1006.6
20260507031902 15 275 0.0 9.7 0.00 0.05 0.05 92 1006.5
20260507031849 15 224 0.0 3.2 0.00 0.05 0.05 92 1006.4
20260507030902 15 196 0.0 1.6 0.00 0.05 0.05 92 1006.4
20260507030405 15 269 0.0 1.6 0.00 0.05 0.05 92 1006.5
20260507025904 15 317 0.0 0.0 0.00 0.05 0.05 92 1006.3
20260507025402 15 3 0.0 0.0 0.00 0.05 0.05 92 1006.4
20260507024902 15 283 0.0 0.0 0.00 0.05 0.05 92 1006.4
20260507024403 15 340 0.0 0.0 0.00 0.05 0.05 92 1006.3
20260507023902 15 0 0.0 1.6 0.00 0.05 0.05 92 1006.3
20260507023402 15 210 0.0 1.6 0.00 0.05 0.05 92 1006.2
20260507022902 15 210 0.0 0.0 0.00 0.05 0.05 92 1006.3
20260507022404 15 212 0.0 0.0 0.00 0.05 0.05 92 1006.3
20260507021901 15 216 0.0 0.0 0.00 0.05 0.05 92 1006.4
20260507021402 14 213 0.0 0.0 0.00 0.05 0.05 92 1006.4
20260507020903 14 209 0.0 0.0 0.00 0.05 0.05 92 1006.4
20260507020402 14 206 0.0 0.0 0.00 0.05 0.05 92 1006.4
20260507020130 14 204 0.0 0.0 0.00 0.05 0.05 92 1006.4
20260507015402 14 283 0.0 0.0 0.00 0.05 0.05 92 1006.3
20260507014904 14 214 0.0 3.2 0.00 0.05 0.05 92 1006.3
20260507014620 14 244 0.0 3.2 0.00 0.05 0.05 92 1006.4
20260507013904 14 190 0.0 0.0 0.00 0.05 0.05 92 1006.3
20260507013402 14 199 0.0 0.0 0.00 0.05 0.05 92 1006.3
20260507013128 14 195 0.0 0.0 0.00 0.05 0.05 92 1006.2
20260507012402 14 196 0.0 0.0 0.00 0.05 0.05 92 1006.5
20260507012127 14 195 0.0 0.0 0.00 0.05 0.05 93 1006.6
20260507011404 14 190 0.0 4.8 0.00 0.05 0.05 93 1006.7
20260507010903 14 0 0.0 4.8 0.00 0.05 0.05 93 1006.7
20260507010403 14 276 0.0 3.2 0.00 0.05 0.05 93 1006.7
20260507005908 14 161 0.0 0.0 0.00 0.05 0.05 93 1006.7
20260507005402 14 251 0.0 0.0 0.00 0.05 0.05 92 1006.7
20260507004905 14 251 0.0 0.0 0.00 0.05 0.05 92 1006.7
20260507004402 14 271 0.0 0.0 0.00 0.05 0.05 92 1006.8
20260507003904 13 234 0.0 1.6 0.00 0.05 0.05 92 1006.7
20260507003403 13 195 0.0 11.3 0.00 0.05 0.05 92 1006.6
20260507002903 13 235 0.0 11.3 0.00 0.05 0.05 92 1006.8
20260507002409 13 172 0.0 3.2 0.00 0.05 0.05 92 1006.5
20260507002404 13 195 0.0 4.8 0.00 0.05 0.05 92 1006.7
20260507001404 13 185 0.0 6.4 0.00 0.05 0.05 92 1006.5
20260507000904 13 207 0.0 6.4 0.00 0.05 0.05 92 1006.5
20260507000405 13 200 0.0 1.6 0.00 0.05 0.05 92 1006.5
20260506235901 13 245 0.0 1.6 0.00 0.05 0.05 92 1006.5
20260506235359 14 261 0.0 1.6 0.00 0.05 0.05 92 1006.3
20260506234852 14 220 0.0 1.6 0.00 0.05 0.05 92 1006.5
20260506234352 14 227 0.0 3.2 0.00 0.05 0.05 92 1006.5
20260506233854 14 275 0.0 3.2 0.00 0.05 0.05 92 1006.3
20260506233350 14 261 0.0 3.2 0.00 0.05 0.05 91 1006.3
20260506232849 14 227 0.0 1.6 0.00 0.05 0.05 91 1006.3
20260506232331 14 227 0.0 1.6 0.00 0.05 0.05 91 1006.4
20260506231832 14 179 0.0 1.6 0.00 0.05 0.05 91 1006.5
20260506231331 14 199 0.0 1.6 0.00 0.05 0.05 91 1006.3
20260506230832 14 193 0.0 4.8 0.00 0.05 0.05 91 1006.5
20260506230331 14 204 0.0 4.8 0.00 0.05 0.05 90 1006.4
20260506230056 15 195 0.0 1.6 0.03 0.05 0.05 90 1006.4
20260506225331 15 203 0.0 0.0 0.03 0.05 0.05 90 1006.4
20260506224833 15 214 0.0 0.0 0.03 0.05 0.05 91 1006.5
20260506224332 15 213 0.0 0.0 0.03 0.05 0.05 91 1006.4
20260506223832 15 216 0.0 0.0 0.03 0.05 0.05 91 1006.4
20260506223332 15 264 0.0 1.6 0.03 0.05 0.05 91 1006.3
20260506222833 15 207 0.0 3.2 0.03 0.05 0.05 91 1006.3
20260506222330 15 309 0.0 3.2 0.03 0.05 0.05 91 1006.3
20260506221831 15 212 0.0 6.4 0.03 0.05 0.05 91 1006.5
20260506221331 15 219 0.0 6.4 0.03 0.05 0.05 91 1006.4
20260506220831 15 183 0.0 4.8 0.03 0.05 0.05 91 1006.6
20260506220330 15 210 0.0 3.2 0.03 0.05 0.05 91 1006.7
20260506215831 -17 192 0.0 0.0 0.00 0.05 0.05 1006.8
20260506215331 15 248 0.0 1.6 0.00 0.05 0.05 90 1006.8
20260506214831 15 248 0.0 1.6 0.00 0.05 0.05 90 1006.8
20260506214331 15 165 0.0 0.0 0.03 0.05 0.05 90 1006.7
20260506213832 15 172 0.0 1.6 0.03 0.05 0.05 90 1006.8
20260506213331 15 217 0.0 1.6 0.03 0.05 0.05 90 1006.8
20260506212823 15 200 0.0 3.2 0.03 0.05 0.05 90 1006.9
20260506212324 15 192 0.0 3.2 0.03 0.05 0.05 90 1007.1
20260506211822 15 199 0.0 3.2 0.03 0.05 0.05 90 1007.1
20260506211321 15 282 0.0 3.2 0.03 0.05 0.05 90 1007.0
20260506211315 15 185 0.0 8.0 0.03 0.05 0.05 90 1007.2
20260506210319 15 193 0.0 8.0 0.03 0.05 0.05 90 1007.1
20260506205820 15 214 0.0 3.2 0.03 0.03 0.05 90 1007.1
20260506205540 15 209 0.0 3.2 0.05 0.03 0.05 89 1007.1
20260506204819 15 197 0.0 1.6 0.05 0.03 0.05 89 1007.2
20260506204320 15 259 0.0 0.0 0.03 0.03 0.03 88 1007.3
20260506203819 15 186 0.0 1.6 0.03 0.03 0.03 88 1007.4
20260506203318 15 178 0.0 1.6 0.03 0.03 0.03 88 1007.4
20260506202819 15 173 0.0 1.6 0.03 0.03 0.03 88 1007.4
20260506202806 15 169 0.0 8.0 0.03 0.03 0.03 87 1007.4
20260506201818 15 180 0.0 8.0 0.03 0.03 0.03 87 1007.5
20260506201317 16 209 0.0 0.0 0.03 0.03 0.03 87 1007.5
20260506200819 16 185 0.0 0.0 0.03 0.03 0.03 87 1007.4
20260506200803 16 161 0.0 1.6 0.03 0.03 0.03 87 1007.5
20260506195819 16 186 0.0 1.6 0.03 0.00 0.03 86 1007.5
20260506195317 16 228 0.0 4.8 0.00 0.00 0.00 86 1007.5
20260506195038 16 203 0.0 4.8 0.00 0.00 0.00 85 1007.4
20260506194317 16 171 0.0 1.6 0.00 0.00 0.00 84 1007.3
20260506193820 16 202 0.0 1.6 0.00 0.00 0.00 83 1007.3
20260506193317 16 214 0.0 11.3 0.00 0.00 0.00 82 1007.5
20260506192817 17 310 1.6 11.3 0.00 0.00 0.00 82 1007.8
20260506192542 17 186 0.0 1.6 0.00 0.00 0.00 81 1007.7
20260506191819 17 258 0.0 0.0 0.00 0.00 0.00 80 1007.7
20260506191535 17 274 0.0 14.5 0.00 0.00 0.00 79 1007.6
20260506190818 17 166 0.0 14.5 0.00 0.00 0.00 79 1007.7
20260506190316 18 262 0.0 6.4 0.00 0.00 0.00 77 1007.7
20260506190041 18 193 0.0 0.0 0.00 0.00 0.00 72 1007.8
20260506185314 19 180 0.0 0.0 0.00 0.00 0.00 72 1007.7
20260506184813 19 180 0.0 1.6 0.00 0.00 0.00 72 1007.7
20260506184312 19 227 0.0 1.6 0.00 0.00 0.00 71 1007.7
20260506183813 19 209 0.0 1.6 0.00 0.00 0.00 71 1007.7
20260506183313 20 161 0.0 1.6 0.00 0.00 0.00 70 1007.7
20260506182813 20 255 0.0 1.6 0.00 0.00 0.00 70 1007.9
20260506182311 20 142 0.0 3.2 0.00 0.00 0.00 68 1007.9
20260506181812 20 127 0.0 3.2 0.00 0.00 0.00 68 1008.0
20260506181312 20 269 0.0 4.8 0.00 0.00 0.00 68 1007.9
20260506181303 20 271 0.0 4.8 0.00 0.00 0.00 67 1007.8
20260506180311 20 217 0.0 0.0 0.00 0.00 0.00 66 1007.9
20260506175813 20 255 0.0 16.1 0.00 0.00 0.00 67 1008.0
20260506175311 21 182 3.2 16.1 0.00 0.00 0.00 66 1008.0
20260506174811 21 224 0.0 1.6 0.00 0.00 0.00 65 1008.2
20260506174310 21 183 0.0 8.0 0.00 0.00 0.00 66 1008.1
20260506173813 21 192 0.0 17.7 0.00 0.00 0.00 64 1008.0
20260506173310 21 268 3.2 17.7 0.00 0.00 0.00 64 1008.2
20260506172811 21 165 0.0 11.3 0.00 0.00 0.00 63 1008.3
20260506172311 21 207 0.0 6.4 0.00 0.00 0.00 63 1008.3
20260506171807 22 255 0.0 11.3 0.00 0.00 0.00 62 1008.5
20260506171753 22 275 1.6 11.3 0.00 0.00 0.00 63 1008.1
20260506170808 21 220 0.0 8.0 0.00 0.00 0.00 63 1008.2
20260506170309 21 281 1.6 8.0 0.00 0.00 0.00 63 1008.2
20260506165810 22 275 0.0 3.2 0.00 0.00 0.00 63 1008.3
20260506165309 22 176 0.0 8.0 0.00 0.00 0.00 63 1008.4
20260506165254 21 307 0.0 8.0 0.00 0.00 0.00 63 1008.4
20260506164308 21 140 0.0 0.0 0.00 0.00 0.00 64 1008.5
20260506164026 21 178 0.0 6.4 0.00 0.00 0.00 65 1008.6
20260506163528 21 178 0.0 6.4 0.00 0.00 0.00 64 1008.6
20260506162808 21 351 0.0 11.3 0.00 0.00 0.00 64 1008.7
20260506162307 21 345 0.0 11.3 0.00 0.00 0.00 63 1008.9
20260506161808 21 176 0.0 3.2 0.00 0.00 0.00 64 1008.8
20260506161528 21 196 0.0 1.6 0.00 0.00 0.00 62 1008.9
20260506160808 21 204 0.0 1.6 0.00 0.00 0.00 62 1009.0
20260506160307 22 252 0.0 3.2 0.00 0.00 0.00 63 1009.1
20260506160032 22 240 0.0 3.2 0.00 0.00 0.00 63 1009.1
20260506155532 22 220 0.0 8.0 0.00 0.00 0.00 64 1009.2
20260506155028 21 216 1.6 8.0 0.00 0.00 0.00 64 1009.1
20260506154307 21 197 0.0 4.8 0.00 0.00 0.00 64 1009.3